Waarnemingen

Advertentie
Mijn weer
Carcassonne, Frankrijk (7635): temperatuur & dauwpunt: 19.09.2017 06:00:00 - 25.09.2017 06:00:00 (CEST)Carcassonne, Frankrijk (7635): temperatuur 5cm: 19.09.2017 06:00:00 - 25.09.2017 06:00:00 (CEST)Carcassonne, Frankrijk (7635): temperatuur -20cm & temperatuur -100cm: 19.09.2017 06:00:00 - 25.09.2017 06:00:00 (CEST)Carcassonne, Frankrijk (7635): windsnelheid & windstoten: 19.09.2017 06:00:00 - 25.09.2017 06:00:00 (CEST)Carcassonne, Frankrijk (7635): windrichting: 19.09.2017 06:00:00 - 25.09.2017 06:00:00 (CEST)Carcassonne, Frankrijk (7635): luchtdruk: 19.09.2017 06:00:00 - 25.09.2017 06:00:00 (CEST)Carcassonne, Frankrijk (7635): zicht: 19.09.2017 06:00:00 - 25.09.2017 06:00:00 (CEST)Carcassonne, Frankrijk (7635): Zonneschijnduur: 19.09.2017 06:00:00 - 25.09.2017 06:00:00 (CEST)Carcassonne, Frankrijk (7635): neerslag: 19.09.2017 06:00:00 - 25.09.2017 06:00:00 (CEST)
Datum & Tijd tt [°C] td [°C] tt 5cm [°C] tt -20cm [°C] tt -100cm [°C] ff [km/u] ff [kn] fx [km/u] fx [kn] dd ppp [hPa] vv [km] sd [min] rr [mm]
25.09.2017 06:00:00 11,2 9,9 8,0 21,4 20,8 13 7 30 16 WNW 1018,4 36 0 0,0
25.09.2017 05:00:00 11,0 8,2 8,9 21,7 20,8 2 1 7 4 ZZO 1017,5 46 0 0,0
25.09.2017 04:00:00 11,5 8,9 9,1 22,0 20,8 5 3 7 4 Z 1017,8 54 0 0,0
25.09.2017 03:00:00 12,0 8,8 9,6 22,3 20,8 4 2 6 3 Z 1018,0 56 0 0,0
25.09.2017 02:00:00 12,4 8,7 10,0 22,6 20,8 4 2 9 5 WNW 1018,1 50 0 0,0
25.09.2017 01:00:00 13,9 8,7 11,0 22,9 20,8 4 2 10 5 ZZW 1018,0 60 0 0,0
25.09.2017 00:00:00 14,5 8,9 11,9 23,2 20,8 0 0 13 7 N 1018,3 56 0 0,0
24.09.2017 23:00:00 17,1 9,3 13,6 23,5 20,8 6 4 11 6 Z 1018,3 59 0 0,0
24.09.2017 22:00:00 17,7 9,6 13,6 23,7 20,8 3 2 9 5 ZZW 1018,2 60 0 0,0
24.09.2017 21:00:00 19,6 9,2 14,9 23,8 20,8 5 3 7 4 WZW 1017,8 60 0 0,0
24.09.2017 20:00:00 22,5 9,3 17,2 23,8 20,7 5 3 16 8 WNW 1017,4 8 9 0,0
24.09.2017 19:00:00 27,0 9,8 26,7 23,6 20,8 10 5 21 12 NW 1017,2 60 53 0,0
24.09.2017 18:00:00 29,0 9,7 31,6 23,2 20,8 12 6 22 12 NNW 1017,1 57 60 0,0
24.09.2017 17:00:00 29,2 8,8 32,5 22,6 20,8 14 8 31 17 NNW 1017,3 39 60 0,0
24.09.2017 16:00:00 29,2 9,3 33,2 22,0 20,7 18 10 34 19 NW 1017,7 36 60 0,0
24.09.2017 15:00:00 28,8 10,5 32,2 21,3 20,7 21 12 36 19 WNW 1017,9 39 60 0,0
24.09.2017 14:00:00 27,6 12,4 31,5 20,6 20,7 19 11 31 17 WNW 1018,6 45 60 0,0
24.09.2017 13:00:00 26,1 13,6 28,3 20,1 20,7 13 7 24 13 W 1019,1 20 60 0,0
24.09.2017 12:00:00 23,6 14,3 25,0 19,9 20,7 14 8 24 13 W 1019,6 42 60 0,0
24.09.2017 11:00:00 20,6 13,5 20,4 19,8 20,7 12 6 24 13 W 1020,0 28 60 0,0
24.09.2017 10:00:00 14,2 13,4 14,7 19,9 20,8 2 1 4 2 WNW 1020,6 19 40 0,0
24.09.2017 09:00:00 11,7 11,1 8,6 20,1 20,7 0 0 6 4 N 1020,5 7 37 0,0
24.09.2017 08:00:00 9,8 9,0 8,4 20,4 20,8 0 0 5 3 N 1020,5 3,1 0 0,0
24.09.2017 07:00:00 11,1 10,3 10,2 20,5 20,7 3 2 7 4 ZZW 1020,0 0,8 0 0,0
24.09.2017 06:00:00 11,3 10,7 8,7 20,8 20,7 4 2 6 3 W 1020,2 0,3 0 0,0
24.09.2017 05:00:00 11,5 10,6 9,8 21,0 20,7 2 1 10 6 ZW 1019,9 4,1 0 0,0
24.09.2017 04:00:00 12,5 11,4 11,6 21,2 20,7 6 3 11 6 Z 1019,8 6 0 0,0
24.09.2017 03:00:00 13,4 12,6 9,9 21,5 20,7 3 1 6 3 Z 1019,8 1,3 0 0,0
24.09.2017 02:00:00 12,8 11,5 9,9 21,8 20,7 0 0 5 3 N 1019,9 1,1 0 0,0
24.09.2017 01:00:00 14,7 13,4 11,6 22,0 20,7 3 2 12 6 O 1019,9 5 0 0,0
24.09.2017 00:00:00 15,5 13,9 12,4 22,3 20,7 8 5 12 6 O 1020,2 10 0 0,0
23.09.2017 23:00:00 15,8 13,6 14,3 22,5 20,7 6 3 16 9 O 1020,1 17 0 0,0
23.09.2017 22:00:00 17,0 13,7 16,0 22,7 20,7 10 5 18 10 O 1020,0 26 0 0,0
23.09.2017 21:00:00 19,0 14,3 18,5 22,7 20,7 14 8 24 13 O 1019,4 32 0 0,0
23.09.2017 20:00:00 20,2 13,6 19,6 22,8 20,7 15 8 29 15 O 1018,7 41 22 0,0
23.09.2017 19:00:00 22,6 13,4 23,4 22,6 20,7 19 10 30 16 O 1018,6 47 60 0,0
23.09.2017 18:00:00 24,2 13,1 26,8 22,3 20,7 22 12 33 18 O 1018,4 42 60 0,0
23.09.2017 17:00:00 24,9 13,4 28,0 21,9 20,7 20 11 30 16 O 1018,6 40 60 0,0
23.09.2017 16:00:00 25,2 13,1 28,4 21,3 20,7 18 10 34 18 O 1018,8 25 60 0,0
23.09.2017 15:00:00 24,5 13,1 28,3 20,7 20,7 23 12 33 18 O 1019,2 21 60 0,0
23.09.2017 14:00:00 24,1 13,6 26,8 20,2 20,7 21 11 33 18 O 1019,6 21 60 0,0
23.09.2017 13:00:00 22,1 13,7 26,2 19,8 20,7 22 12 32 17 O 1020,1 22 60 0,0
23.09.2017 12:00:00 20,9 13,1 22,8 19,5 20,7 17 9 27 14 O 1020,8 21 60 0,0
23.09.2017 11:00:00 17,9 14,2 20,3 19,5 20,7 15 8 24 13 O 1021,6 18 58 0,0
23.09.2017 10:00:00 16,8 13,3 13,8 19,6 20,7 11 6 16 9 O 1021,6 40 25 0,0
23.09.2017 09:00:00 12,8 11,2 11,1 19,8 20,7 0 0 6 4 N 1021,6 36 0 0,0
23.09.2017 08:00:00 12,2 10,8 9,4 20,0 20,7 0 0 6 4 N 1021,4 30 0 0,0
23.09.2017 07:00:00 12,4 10,5 9,8 20,2 20,8 0 0 8 4 N 1021,2 31 0 0,0
23.09.2017 06:00:00 13,9 10,7 11,0 20,4 20,7 3 1 6 3 NO 1021,0 41 0 0,0
23.09.2017 05:00:00 15,8 11,6 13,8 20,5 20,7 0 0 10 5 N 1020,7 51 0 0,0
23.09.2017 04:00:00 16,5 11,8 16,0 20,6 20,8 6 3 15 8 WZW 1021,1 49 0 0,0
23.09.2017 03:00:00 16,6 11,9 15,7 20,8 20,7 9 5 17 9 WZW 1021,6 50 0 0,0
23.09.2017 02:00:00 16,6 11,9 15,7 20,9 20,8 6 3 10 6 W 1021,9 46 0 0,0
23.09.2017 01:00:00 17,2 11,7 16,4 21,1 20,8 6 3 18 10 NNW 1021,7 56 0 0,0
23.09.2017 00:00:00 18,3 12,1 17,3 21,3 20,8 8 5 20 11 W 1021,9 57 0 0,0
22.09.2017 23:00:00 17,7 11,9 16,4 21,5 20,8 12 6 18 10 W 1021,8 53 0 0,0
22.09.2017 22:00:00 17,9 11,5 16,8 21,6 20,8 8 5 23 13 W 1021,3 57 0 0,0
22.09.2017 21:00:00 19,2 11,5 17,4 21,7 20,8 11 6 18 10 W 1021,1 57 0 0,0
22.09.2017 20:00:00 19,4 11,4 18,1 21,7 20,8 11 6 17 9 WNW 1020,2 19 0 0,0
22.09.2017 19:00:00 22,2 11,6 22,1 21,6 20,8 11 6 23 12 NW 1020,0 60 0 0,0
22.09.2017 18:00:00 23,3 11,4 24,0 21,4 20,8 13 7 27 15 WNW 1020,4 58 0 0,0
22.09.2017 17:00:00 23,9 10,6 24,8 20,9 20,8 16 9 29 16 W 1020,2 54 0 0,0
22.09.2017 16:00:00 24,4 9,5 26,7 20,4 20,8 18 10 30 16 W 1020,1 57 24 0,0
22.09.2017 15:00:00 25,2 10,3 26,6 19,8 20,8 16 9 27 15 WNW 1020,0 44 51 0,0
22.09.2017 14:00:00 23,7 12,7 26,1 19,2 20,8 17 9 36 20 WNW 1020,5 35 60 0,0
22.09.2017 13:00:00 22,6 12,8 24,3 18,8 20,8 16 9 27 15 W 1021,2 19 51 0,0
22.09.2017 12:00:00 20,5 12,5 21,8 18,6 20,8 14 7 23 12 W 1021,5 30 60 0,0
22.09.2017 11:00:00 17,9 12,8 18,8 18,5 20,8 14 8 26 14 WNW 1021,8 24 40 0,0
22.09.2017 10:00:00 16,4 12,9 15,4 18,6 20,8 13 7 23 12 W 1022,0 29 20 0,0
22.09.2017 09:00:00 14,5 12,5 12,7 18,7 20,8 8 5 15 8 W 1021,6 26 3 0,0
22.09.2017 08:00:00 12,9 11,5 11,0 18,9 20,8 8 4 16 8 ZW 1021,4 25 1 0,0
22.09.2017 07:00:00 12,7 10,8 11,3 19,1 20,8 9 5 17 9 ZW 1021,1 20 0 0,0
22.09.2017 06:00:00 13,0 11,1 8,4 19,3 20,8 11 6 16 8 WZW 1020,8 37 0 0,0
22.09.2017 05:00:00 10,0 8,3 7,4 19,6 20,8 5 3 9 5 ZW 1021,0 52 0 0,0
22.09.2017 04:00:00 9,7 7,1 7,4 19,9 20,8 3 1 9 5 ZZW 1020,8 60 0 0,0
22.09.2017 03:00:00 9,3 6,4 6,8 20,1 20,8 4 2 7 4 Z 1020,9 60 0 0,0
22.09.2017 02:00:00 9,5 6,0 7,1 20,4 20,9 3 1 4 2 W 1020,9 60 0 0,0
22.09.2017 01:00:00 10,8 6,2 8,3 20,7 20,8 4 2 10 6 ZZW 1020,6 60 0 0,0
22.09.2017 00:00:00 11,2 5,9 8,3 21,0 20,9 4 2 6 4 Z 1020,2 60 0 0,0
21.09.2017 23:00:00 12,8 6,2 - - - 4 2 4 2 WNW 1019,8 60 - -
21.09.2017 22:00:00 16,0 5,9 11,8 21,4 20,9 4 2 11 6 O 1019,2 60 0 0,0
21.09.2017 21:00:00 18,2 6,4 16,8 21,5 20,9 8 5 19 10 O 1018,5 60 0 0,0
21.09.2017 20:00:00 20,1 6,1 19,1 21,5 20,9 13 7 22 12 O 1017,7 60 8 0,0
21.09.2017 19:00:00 23,0 5,4 23,4 21,3 20,9 17 9 24 13 O 1016,9 59 60 0,0
21.09.2017 18:00:00 24,8 6,5 27,4 20,9 20,9 16 9 27 14 O 1016,2 60 60 0,0
21.09.2017 17:00:00 24,9 6,6 28,3 20,5 20,9 16 8 29 15 O 1016,1 43 60 0,0
21.09.2017 16:00:00 25,0 6,7 28,9 19,8 20,9 17 9 29 16 O 1016,2 45 60 0,0
21.09.2017 15:00:00 24,4 7,1 28,5 19,1 20,9 21 11 34 18 O 1016,7 45 60 0,0
21.09.2017 14:00:00 23,6 7,2 - - - 21 11 31 17 O 1017,2 40 60 -
21.09.2017 13:00:00 22,5 7,5 25,7 18,1 21,0 20 11 32 17 O 1017,6 54 60 0,0
21.09.2017 12:00:00 21,0 7,6 23,3 17,8 21,0 19 11 34 18 O 1018,3 58 60 0,0
21.09.2017 11:00:00 19,2 7,6 20,8 17,7 21,0 22 12 30 16 O 1018,7 60 60 0,0
21.09.2017 10:00:00 16,8 8,5 15,2 17,8 21,0 17 9 24 13 O 1018,9 60 60 0,0
21.09.2017 09:00:00 12,7 6,7 9,0 18,0 21,0 7 4 13 7 OZO 1018,9 57 60 0,0
21.09.2017 08:00:00 9,9 5,9 6,6 18,2 21,0 6 3 11 6 OZO 1018,9 50 2 0,0
21.09.2017 07:00:00 7,8 5,8 4,5 18,5 21,0 6 3 9 5 O 1018,6 60 0 0,0
21.09.2017 06:00:00 6,8 4,9 4,4 18,8 21,0 3 2 7 4 ZO 1018,8 60 0 0,0
21.09.2017 05:00:00 7,4 5,5 4,6 19,0 21,0 5 3 8 4 Z 1018,8 60 0 0,0
21.09.2017 04:00:00 6,7 4,9 4,6 19,4 21,0 3 1 5 3 ZO 1019,1 60 0 0,0
21.09.2017 03:00:00 7,9 5,2 5,3 19,7 21,0 3 2 9 5 ZZW 1019,6 60 0 0,0
21.09.2017 02:00:00 8,9 5,6 6,5 20,0 21,0 2 1 10 6 ZZO 1019,6 60 0 0,0
21.09.2017 01:00:00 10,1 6,2 8,8 20,3 21,0 6 3 12 6 Z 1019,3 60 0 0,0
21.09.2017 00:00:00 10,4 6,2 7,3 20,6 21,1 7 4 11 6 Z 1019,3 60 0 0,0
20.09.2017 23:00:00 12,1 6,2 9,0 20,9 21,1 8 4 12 6 Z 1019,3 60 0 0,0
20.09.2017 22:00:00 14,3 6,1 9,2 21,2 21,1 5 3 13 7 W 1019,4 60 0 0,0
20.09.2017 21:00:00 14,5 5,8 10,2 21,3 21,1 5 3 11 6 WNW 1019,4 60 0 0,0
20.09.2017 20:00:00 16,8 6,0 13,4 21,3 21,1 8 4 21 12 WNW 1019,1 60 30 0,0
20.09.2017 19:00:00 20,9 5,3 21,2 21,2 21,1 15 8 26 14 WNW 1018,7 59 60 0,0
20.09.2017 18:00:00 22,1 5,5 24,4 20,8 21,1 16 8 31 17 W 1018,6 18 60 0,0
20.09.2017 17:00:00 22,4 5,3 25,6 20,3 21,2 17 9 33 18 W 1019,0 38 60 0,0
20.09.2017 16:00:00 22,3 5,2 25,3 19,6 21,2 19 10 34 18 WNW 1019,4 45 60 0,0
20.09.2017 15:00:00 21,6 5,9 25,5 19,0 21,2 21 11 33 18 WNW 1020,0 56 60 0,0
20.09.2017 14:00:00 20,8 6,0 24,4 18,4 21,2 21 11 36 20 WNW 1020,8 46 60 0,0
20.09.2017 13:00:00 19,6 7,7 22,6 17,9 21,2 21 11 33 18 WNW 1021,5 55 60 0,0
20.09.2017 12:00:00 18,6 8,3 21,1 17,5 21,2 17 9 29 16 WNW 1022,3 50 60 0,0
20.09.2017 11:00:00 16,4 8,4 17,7 17,5 21,2 18 10 31 17 W 1023,0 42 60 0,0
20.09.2017 10:00:00 14,1 8,7 14,1 17,5 21,2 15 8 29 15 WNW 1023,4 42 60 0,0
20.09.2017 09:00:00 11,8 8,1 9,9 17,8 21,2 14 8 25 13 W 1023,6 60 60 0,0
20.09.2017 08:00:00 10,1 7,5 6,4 18,0 21,3 15 8 24 13 W 1023,5 41 4 0,0
20.09.2017 07:00:00 9,5 6,6 7,5 18,2 21,3 6 4 18 10 W 1023,5 60 0 0,0
20.09.2017 06:00:00 11,0 6,7 10,2 18,4 21,3 14 8 26 14 W 1023,3 60 0 0,0
20.09.2017 05:00:00 11,0 6,5 10,3 18,7 21,3 14 7 26 14 W 1023,5 60 0 0,0
20.09.2017 04:00:00 12,1 6,8 11,3 18,9 21,3 16 8 30 16 W 1023,5 60 0 0,0
20.09.2017 03:00:00 12,6 6,6 11,3 19,2 21,3 16 9 26 14 W 1023,6 60 0 0,0
20.09.2017 02:00:00 12,2 6,9 11,1 19,4 21,4 13 7 22 12 WZW 1024,0 60 0 0,0
20.09.2017 01:00:00 13,5 7,3 12,6 19,6 21,3 16 9 29 16 WNW 1024,1 58 0 0,0
20.09.2017 00:00:00 14,4 7,7 13,6 19,8 21,3 12 7 23 12 W 1024,0 60 0 0,0
19.09.2017 23:00:00 14,5 8,0 12,7 20,0 21,4 9 5 31 17 WNW 1024,1 60 0 0,0
19.09.2017 22:00:00 16,5 8,5 15,2 20,2 21,4 16 9 27 15 WNW 1023,6 60 0 0,0
19.09.2017 21:00:00 16,9 8,1 14,8 20,3 21,4 14 7 23 13 NW 1023,1 60 0 0,0
19.09.2017 20:00:00 17,4 7,2 16,6 20,4 21,4 11 6 32 17 NW 1022,3 60 18 0,0
19.09.2017 19:00:00 18,8 6,6 18,6 20,3 21,4 24 13 48 26 WNW 1021,8 58 24 0,0
19.09.2017 18:00:00 20,5 6,4 20,2 20,0 21,4 29 16 55 30 WNW 1021,3 36 52 0,0
19.09.2017 17:00:00 20,6 7,2 19,4 19,7 21,4 31 17 55 30 WNW 1021,4 13 38 0,0
19.09.2017 16:00:00 19,9 6,9 19,6 19,3 21,4 39 21 61 33 NW 1021,5 49 39 0,0
19.09.2017 15:00:00 20,4 7,4 18,6 18,9 21,4 32 17 53 29 WNW 1021,9 57 31 0,0
19.09.2017 14:00:00 18,4 7,8 20,6 18,5 21,5 33 18 51 28 WNW 1022,7 29 42 0,0
19.09.2017 13:00:00 18,8 9,8 14,0 18,2 21,5 29 15 54 29 WNW 1022,8 34 32 0,2
19.09.2017 12:00:00 17,7 9,1 17,0 18,0 21,5 34 18 51 28 WNW 1023,1 60 32 0,0
19.09.2017 11:00:00 16,2 10,5 16,3 17,9 21,5 26 14 45 24 WNW 1023,1 60 60 0,0
19.09.2017 10:00:00 13,5 10,7 12,4 18,0 21,5 21 12 36 19 WNW 1023,4 51 31 0,0
19.09.2017 09:00:00 12,3 10,5 11,1 18,1 21,5 17 9 29 16 WNW 1023,3 51 43 0,0
19.09.2017 08:00:00 11,2 9,9 10,5 18,3 21,5 14 8 26 14 WNW 1023,0 60 3 0,0
19.09.2017 07:00:00 11,5 10,2 10,9 18,5 21,5 15 8 22 12 WNW 1022,7 60 0 0,0
19.09.2017 06:00:00 11,7 10,6 11,1 18,6 21,5 15 8 26 14 WNW 1022,3 42 0 0,0

tt = temperatuur
td = dauwpunt
tt 5cm = temperatuur 5cm
tt -20cm = temperatuur -20cm
tt -100cm = temperatuur -100cm
ff = windsnelheid
fx = windstoten
dd = windrichting
ppp = luchtdruk
vv = zicht
sd = Zonneschijnduur
rr = neerslag

Weerstations in de omgeving